Showing default

ORBCOMM FM 27, 25481

Orbit data source: Space-Track

ORBCOMM FM 27, 25481 is a payload satellite owned by Orbcomm (US) in LEO that was launched on Wed, 23 Sep 1998 UTC via a PEGASUS XL/HAPS launch vehicle from the Pegasus Launch, Eastern Range Air Space (ERAS). Payload-class satellites include a variety of spacecraft equipped with specific instruments for various scientific and technological missions. These include communications satellites like Starlink; space stations such as the ISS; scientific satellites like the Hubble; Earth observation satellites from companies like Planet Labs, Umbra, and HawkEye 360; GPS; miniature CubeSats for education and research; and military/defense satellites.

Loading next visibility...
Identifier
25481, 1998-053G
Orbit
LEO
Country
Flag of USUS / ORB
Related business
Manufacturer
OSC-Germantown
Mission
Operational Commercial Communications
Bus & Motor
MICROSTAR, Unknown motor
Mass
42 kg wet, 42 kg dry
Launch date (UTC)
1998-09-23 (27 years ago)
Launch vehicle
PEGASUS XL/HAPS
Launch site
Pegasus Launch, Eastern Range Air Space (ERAS)
Object type
Payload
Rocket body
Debris
Shape & HBR
Cyl + 2 Pan, 4.2 m
Radar Cross Section
1.484 m², Medium (>0.1 m² and < 1m²)

Expand to show TLE details & history
Last TLE update: 22 hours ago

TLE from 22 hours ago
0 ORBCOMM FM 27
1 25481U 98053G   25348.71564185  .00001397  00000-0  49757-3 0  9999
2 25481  45.0030 131.2350 0001196 146.2496 213.8429 14.38662037423668
Epoch: 2025-12-14T17:10Z
TLE epoch observation values (Epoch: 2025-12-14T17:10:31.455Z)
Latitude
-0.00002°
Longitude
149.97934°
Altitude
763.631 km
Speed
7.474 km/s
True Right ascension
08h 44m 56s
True Declination
0° 00' 00"
Sunlit
Object was in full shadow at epoch
Visualization orbit readout
Latitude
Unknown
Longitude
Unknown
Altitude
Unknown
Speed
Unknown
Apparent Right ascension
Unknown
Apparent Declination
Unknown
Sunlit
N/A
Visualization observer readout
Local Sidereal Time
13:23:46
Azimuth
Unknown
Elevation
Unknown
Doppler factor
Unknown
Orbital elements
Apogee altitude
765.323 km
Perigee altitude
763.614 km
Semi-major axis
7,142.605 km
Eccentricity
0.00012
Inclination
45.003°
RAAN
131.235°
Arg. of periapsis
146.2496°
True anomaly
213.83527°
Mean anomaly
213.8429°
Eccentric anomaly
213.83908°
Mean motion
3.59549 °/min
Orbital period
100.13 mins
BSTAR
0.00049757
Loading maneuver chart data...
Computing Atmospheric mass density...
Loading historical data...
Loading historical data...
Loading historical data...
Loading historical data...
Loading historical data...
Loading historical data...
Loading historical data...

Documentation

Showing up to 5 results
|